• In Hungary
  • List of Countries
  • For 7 days
  • Water Temperature
  • Satellite Maps
  • Weather Map
  • News
  • Weather Widgets
  • user-avatar
    Login

    Hourly Weather Rycerzewo

    Today, 24 October, Wednesday

    Time Temperature Precipitation Wind Pressure Humidity
    00:00 +5°C° 0.3 mm 7 mps 737 mmHg 78%
    01:00 +5°C° 0.3 mm 7 mps 737 mmHg 78%
    02:00 +5°C° 0.3 mm 8 mps 737 mmHg 76%
    03:00 +4°C° 0.3 mm 8 mps 738 mmHg 75%
    04:00 +3°C° 0.3 mm 9 mps 738 mmHg 73%
    05:00 +3°C° 0.3 mm 9 mps 738 mmHg 72%
    06:00 +3°C° 0.3 mm 10 mps 739 mmHg 72%
    07:00 +3°C° 0.3 mm 10 mps 740 mmHg 71%
    08:00 +3°C° 0.2 mm 11 mps 740 mmHg 69%
    09:00 +4°C° 0.2 mm 11 mps 741 mmHg 66%
    10:00 +4°C° 0.2 mm 12 mps 742 mmHg 64%
    11:00 +4°C° 0.1 mm 12 mps 742 mmHg 64%
    12:00 +4°C° 0.1 mm 12 mps 743 mmHg 64%
    13:00 +4°C° 0.1 mm 12 mps 744 mmHg 65%
    14:00 +4°C° 0.1 mm 11 mps 744 mmHg 65%
    15:00 +4°C° 0.1 mm 11 mps 745 mmHg 65%
    16:00 +4°C° 0.1 mm 11 mps 746 mmHg 65%
    17:00 +5°C° 0.1 mm 10 mps 746 mmHg 66%
    18:00 +5°C° 0.1 mm 9 mps 747 mmHg 66%
    19:00 +4°C° 0.1 mm 8 mps 748 mmHg 67%
    20:00 +4°C° 0 mm 7 mps 748 mmHg 69%
    21:00 +4°C° 0 mm 6 mps 749 mmHg 71%
    22:00 +4°C° 0 mm 6 mps 749 mmHg 73%
    23:00 +3°C° 0 mm 5 mps 749 mmHg 75%

    Tomorrow, 25 October, Thursday

    Time Temperature Precipitation Wind Pressure Humidity
    00:00 +3°C° 0 mm 5 mps 749 mmHg 77%
    01:00 +4°C° 0 mm 4 mps 749 mmHg 79%
    02:00 +4°C° 0 mm 4 mps 749 mmHg 78%
    03:00 +3°C° 0 mm 5 mps 748 mmHg 77%
    04:00 +3°C° 0 mm 5 mps 748 mmHg 76%
    05:00 +2°C° 0.2 mm 5 mps 747 mmHg 79%
    06:00 +2°C° 0.2 mm 5 mps 746 mmHg 82%
    07:00 +2°C° 0.2 mm 6 mps 745 mmHg 85%
    08:00 +3°C° 0.7 mm 6 mps 744 mmHg 86%
    09:00 +4°C° 0.7 mm 7 mps 743 mmHg 87%
    10:00 +5°C° 0.7 mm 7 mps 742 mmHg 89%
    11:00 +6°C° 0.2 mm 8 mps 742 mmHg 82%
    12:00 +7°C° 0.2 mm 9 mps 741 mmHg 75%
    13:00 +10°C° 0.2 mm 9 mps 741 mmHg 68%
    14:00 +8°C° 0.1 mm 9 mps 741 mmHg 69%
    15:00 +9°C° 0.1 mm 8 mps 741 mmHg 71%
    16:00 +8°C° 0.1 mm 7 mps 742 mmHg 72%
    17:00 +8°C° 0.1 mm 7 mps 742 mmHg 74%
    18:00 +6°C° 0.1 mm 7 mps 743 mmHg 76%
    19:00 +7°C° 0.1 mm 6 mps 743 mmHg 78%
    20:00 +7°C° 0.1 mm 6 mps 744 mmHg 79%
    21:00 +7°C° 0.1 mm 6 mps 744 mmHg 80%
    22:00 +5°C° 0.1 mm 6 mps 744 mmHg 81%
    23:00 +6°C° 0 mm 5 mps 744 mmHg 83%

    Day after tomorrow, 26 October, Friday

    Time Temperature Precipitation Wind Pressure Humidity
    00:00 +6°C° 0 mm 5 mps 745 mmHg 84%
    01:00 +6°C° 0 mm 5 mps 745 mmHg 86%
    02:00 +6°C° 0.1 mm 5 mps 745 mmHg 87%
    03:00 +5°C° 0.1 mm 5 mps 745 mmHg 88%
    04:00 +5°C° 0.1 mm 5 mps 745 mmHg 90%
    05:00 +5°C° 0.1 mm 5 mps 745 mmHg 89%
    06:00 +5°C° 0.1 mm 5 mps 745 mmHg 89%
    07:00 +6°C° 0.1 mm 5 mps 745 mmHg 88%
    08:00 +5°C° 0 mm 6 mps 745 mmHg 83%
    09:00 +7°C° 0 mm 6 mps 745 mmHg 79%
    10:00 +8°C° 0 mm 6 mps 745 mmHg 74%
    11:00 +9°C° 0 mm 6 mps 745 mmHg 72%
    12:00 +9°C° 0 mm 7 mps 744 mmHg 70%
    13:00 +9°C° 0 mm 7 mps 744 mmHg 68%
    14:00 +9°C° 0.5 mm 7 mps 743 mmHg 73%
    15:00 +8°C° 0.5 mm 7 mps 742 mmHg 78%
    16:00 +7°C° 0.5 mm 8 mps 742 mmHg 82%
    17:00 +7°C° 0.1 mm 8 mps 741 mmHg 83%
    18:00 +9°C° 0.1 mm 8 mps 740 mmHg 84%
    19:00 +9°C° 0.1 mm 8 mps 740 mmHg 84%
    20:00 +9°C° 0.2 mm 8 mps 740 mmHg 84%
    21:00 +7°C° 0.2 mm 8 mps 739 mmHg 83%
    22:00 +7°C° 0.2 mm 8 mps 739 mmHg 83%
    23:00 +7°C° 0.5 mm 8 mps 739 mmHg 83%

    27 October, Saturday

    Time Temperature Precipitation Wind Pressure Humidity
    00:00 +6°C° 0.5 mm 7 mps 739 mmHg 83%
    01:00 +6°C° 0.5 mm 7 mps 739 mmHg 83%
    02:00 +5°C° 0.8 mm 7 mps 739 mmHg 82%
    03:00 +5°C° 0.8 mm 7 mps 739 mmHg 81%
    04:00 +4°C° 0.8 mm 8 mps 740 mmHg 81%
    05:00 +4°C° 0.2 mm 7 mps 740 mmHg 80%
    06:00 +4°C° 0.2 mm 7 mps 741 mmHg 79%
    07:00 +4°C° 0.2 mm 7 mps 742 mmHg 79%
    08:00 +5°C° 0.1 mm 7 mps 743 mmHg 76%
    09:00 +5°C° 0.1 mm 7 mps 743 mmHg 73%
    10:00 +5°C° 0.1 mm 8 mps 744 mmHg 71%
    11:00 +6°C° 0.3 mm 8 mps 745 mmHg 70%
    12:00 +6°C° 0.3 mm 7 mps 746 mmHg 70%
    13:00 +6°C° 0.3 mm 7 mps 746 mmHg 69%
    14:00 +5°C° 0.2 mm 7 mps 747 mmHg 71%
    15:00 +5°C° 0.2 mm 6 mps 748 mmHg 72%
    16:00 +5°C° 0.2 mm 5 mps 748 mmHg 74%
    17:00 +3°C° 0 mm 5 mps 749 mmHg 76%
    18:00 +4°C° 0 mm 4 mps 750 mmHg 77%
    19:00 +3°C° 0 mm 4 mps 751 mmHg 79%
    20:00 +3°C° 0 mm 4 mps 751 mmHg 80%
    21:00 +3°C° 0 mm 4 mps 752 mmHg 81%
    22:00 +1°C° 0 mm 4 mps 752 mmHg 81%
    23:00 +2°C° 0 mm 3 mps 753 mmHg 83%

    28 October, Sunday

    Time Temperature Precipitation Wind Pressure Humidity
    00:00 +2°C° 0 mm 3 mps 753 mmHg 85%
    01:00 +2°C° 0 mm 3 mps 754 mmHg 86%
    02:00 +3°C° 0 mm 2 mps 754 mmHg 86%
    03:00 +3°C° 0 mm 2 mps 754 mmHg 87%
    04:00 +4°C° 0 mm 1 mps 755 mmHg 87%
    05:00 +4°C° 0 mm 1 mps 755 mmHg 87%
    06:00 +4°C° 0 mm 1 mps 756 mmHg 87%
    07:00 +3°C° 0 mm 1 mps 757 mmHg 87%
    08:00 +5°C° 0 mm 1 mps 757 mmHg 81%
    09:00 +6°C° 0 mm 1 mps 757 mmHg 75%
    10:00 +7°C° 0 mm 1 mps 758 mmHg 70%
    11:00 +7°C° 0 mm 2 mps 758 mmHg 66%
    12:00 +7°C° 0 mm 2 mps 758 mmHg 63%
    13:00 +8°C° 0 mm 3 mps 758 mmHg 59%
    14:00 +7°C° 0 mm 3 mps 758 mmHg 62%
    15:00 +7°C° 0 mm 3 mps 758 mmHg 65%
    16:00 +5°C° 0 mm 3 mps 758 mmHg 68%
    17:00 +5°C° 0 mm 4 mps 758 mmHg 69%
    18:00 +4°C° 0 mm 4 mps 758 mmHg 70%
    19:00 +4°C° 0 mm 4 mps 758 mmHg 70%
    20:00 +3°C° 0 mm 5 mps 759 mmHg 70%
    21:00 +3°C° 0 mm 5 mps 759 mmHg 69%
    22:00 +2°C° 0 mm 5 mps 759 mmHg 69%
    23:00 +2°C° 0 mm 6 mps 758 mmHg 69%

    29 October, Monday

    Time Temperature Precipitation Wind Pressure Humidity
    00:00 +2°C° 0 mm 7 mps 758 mmHg 70%
    01:00 +2°C° 0 mm 7 mps 758 mmHg 70%
    02:00 +2°C° 0.2 mm 7 mps 757 mmHg 72%
    03:00 +1°C° 0.2 mm 8 mps 757 mmHg 73%
    04:00 +1°C° 0.2 mm 8 mps 756 mmHg 75%
    05:00 0°C° 0.6 mm 8 mps 756 mmHg 76%
    06:00 0°C° 0.6 mm 9 mps 756 mmHg 78%
    07:00 0°C° 0.6 mm 9 mps 755 mmHg 80%
    08:00 0°C° 1.3 mm 9 mps 755 mmHg 82%
    09:00 0°C° 1.3 mm 10 mps 754 mmHg 84%
    10:00 0°C° 1.3 mm 10 mps 753 mmHg 86%
    11:00 0°C° 1.9 mm 10 mps 753 mmHg 88%
    12:00 -2°C° 1.9 mm 10 mps 753 mmHg 90%
    13:00 -2°C° 1.9 mm 10 mps 752 mmHg 92%
    14:00 -2°C° 0.8 mm 10 mps 752 mmHg 92%
    15:00 -2°C° 0.8 mm 10 mps 751 mmHg 92%
    16:00 -2°C° 0.8 mm 10 mps 751 mmHg 92%
    17:00 -2°C° 1 mm 10 mps 751 mmHg 92%
    18:00 -1°C° 1 mm 9 mps 750 mmHg 93%
    19:00 -1°C° 1 mm 9 mps 750 mmHg 93%
    20:00 -1°C° 0.2 mm 9 mps 750 mmHg 94%
    21:00 -1°C° 0.2 mm 8 mps 750 mmHg 94%
    22:00 -1°C° 0.2 mm 8 mps 750 mmHg 94%
    23:00 -1°C° 0 mm 8 mps 750 mmHg 95%

    30 October, Tuesday

    Time Temperature Precipitation Wind Pressure Humidity
    00:00 -1°C° 0 mm 7 mps 750 mmHg 95%
    01:00 -1°C° 0 mm 7 mps 749 mmHg 96%
    02:00 -1°C° 0 mm 7 mps 749 mmHg 96%
    03:00 0°C° 0 mm 7 mps 749 mmHg 97%
    04:00 0°C° 0 mm 7 mps 749 mmHg 97%
    05:00 0°C° 0 mm 7 mps 749 mmHg 97%
    06:00 0°C° 0 mm 7 mps 749 mmHg 97%
    07:00 +2°C° 0 mm 7 mps 749 mmHg 97%
    08:00 +3°C° 0 mm 7 mps 748 mmHg 97%
    09:00 +4°C° 0 mm 8 mps 748 mmHg 96%
    10:00 +5°C° 0 mm 8 mps 748 mmHg 96%
    11:00 +6°C° 0 mm 7 mps 748 mmHg 95%
    12:00 +8°C° 0 mm 7 mps 748 mmHg 94%
    13:00 +9°C° 0 mm 7 mps 747 mmHg 93%
    14:00 +10°C° 0 mm 6 mps 747 mmHg 93%
    15:00 +10°C° 0 mm 6 mps 747 mmHg 92%
    16:00 +12°C° 0 mm 5 mps 747 mmHg 92%
    17:00 +12°C° 0.2 mm 5 mps 747 mmHg 93%
    18:00 +12°C° 0.2 mm 5 mps 748 mmHg 93%
    19:00 +12°C° 0.2 mm 5 mps 748 mmHg 94%
    20:00 +10°C° 3 mm 5 mps 748 mmHg 94%
    21:00 +10°C° 3 mm 5 mps 748 mmHg 94%
    22:00 +11°C° 3 mm 4 mps 748 mmHg 95%
    23:00 +11°C° 2.3 mm 4 mps 748 mmHg 95%
    Show more